Weather History for Bremerton, WA

Change the Weather History Date:

Thursday, October 7, 2010

  Actual Average Record
Temperature  
Mean Temperature 52 °F -  
Max Temperature 62 °F 59 °F 75 °F (2000)
Min Temperature 41 °F 43 °F 37 °F (2006)
Degree Days  
Heating Degree Days 14    
Growing Degree Days 2 (Base 50)    
Moisture  
Dew Point 45 °F    
Average Humidity 78    
Maximum Humidity 93    
Minimum Humidity 59    
Precipitation  
Precipitation 0.00 in - - ()
Sea Level Pressure  
Sea Level Pressure 30.00 in    
Wind  
Wind Speed 6 mph (SSW)    
Max Wind Speed 21 mph    
Max Gust Speed 30 mph    
Visibility 10 miles    
Events      
Averages and records for this station are not official NWS values.
T = Trace of Precipitation, MM = Missing Value Source: NWS Daily Summary

Daily Weather History Graph

Daily Weather History Graph

Search for Another Location

Airport:

Trip Planner

Search our weather history database for the weather conditions in past years. The results will help you decide how hot, cold, wet, or windy it might be!

Date:

Astronomy

Oct. 07, 2010 Rise Set
Actual Time 7:18 AM PDT 6:38 PM PDT
Civil Twilight 6:47 AM PDT 7:09 PM PDT
Nautical Twilight 6:12 AM PDT 7:44 PM PDT
Astronomical Twilight 5:36 AM PDT 8:20 PM PDT
Moon 7:21 AM PDT (10/7) 6:11 PM PDT (10/7)
Length of Visible Light 12h 21m
Length of Day
11h 19m
New Moon, 0% of the Moon is Illuminated
Oct 7
New Moon
Oct 14
First Quarter
Oct 22
Full
Oct 30
Last Quarter
Nov 5
New

Hourly Weather History & Observations

Time (PDT) Temp. Windchill Dew Point Humidity Pressure Visibility Wind Dir Wind Speed Gust Speed Precip Events Conditions
12:15 AM 44.6 °F - 39.2 °F 81% 29.94 in 10.0 mi Calm Calm - N/A   Clear
12:35 AM 44.6 °F - 39.2 °F 81% 29.94 in 10.0 mi Calm Calm - N/A   Clear
12:55 AM 44.6 °F - 39.2 °F 81% 29.94 in 10.0 mi Calm Calm - N/A   Clear
1:15 AM 42.8 °F - 39.2 °F 87% 29.93 in 10.0 mi Calm Calm - N/A   Clear
1:35 AM 42.8 °F - 39.2 °F 87% 29.93 in 10.0 mi Calm Calm - N/A   Clear
1:55 AM 41.0 °F - 39.2 °F 93% 29.93 in 10.0 mi Calm Calm - N/A   Clear
2:15 AM 42.8 °F - 39.2 °F 87% 29.94 in 10.0 mi Calm Calm - N/A   Clear
2:35 AM 42.8 °F - 39.2 °F 87% 29.94 in 10.0 mi Calm Calm - N/A   Clear
2:55 AM 44.6 °F 43.1 °F 39.2 °F 81% 29.94 in 10.0 mi North 3.5 mph - N/A   Clear
3:15 AM 42.8 °F - 39.2 °F 87% 29.93 in 10.0 mi Calm Calm - N/A   Clear
3:35 AM 44.6 °F - 39.2 °F 81% 29.91 in 10.0 mi Calm Calm - N/A   Clear
3:55 AM 44.6 °F - 39.2 °F 81% 29.92 in 10.0 mi Calm Calm - N/A   Clear
4:15 AM 42.8 °F - 39.2 °F 87% 29.93 in 10.0 mi Calm Calm - N/A   Clear
4:35 AM 46.4 °F - 41.0 °F 81% 29.93 in 10.0 mi Calm Calm - N/A   Clear
4:55 AM 46.4 °F - 41.0 °F 81% 29.93 in 10.0 mi Calm Calm - N/A   Clear
5:15 AM 46.4 °F - 42.8 °F 87% 29.92 in 8.0 mi Calm Calm - N/A   Clear
5:35 AM 46.4 °F 44.3 °F 42.8 °F 87% 29.92 in 10.0 mi SSW 4.6 mph - N/A   Clear
5:55 AM 48.2 °F - 42.8 °F 82% 29.93 in 10.0 mi SSW 4.6 mph - N/A   Clear
6:15 AM 48.2 °F - 44.6 °F 87% 29.94 in 10.0 mi South 5.8 mph - N/A   Clear
6:35 AM 48.2 °F - 44.6 °F 87% 29.95 in 10.0 mi South 5.8 mph - N/A   Clear
6:55 AM 48.2 °F - 44.6 °F 87% 29.96 in 10.0 mi South 5.8 mph - N/A   Clear
7:15 AM 48.2 °F - 44.6 °F 87% 29.96 in 10.0 mi South 6.9 mph - N/A   Clear
7:35 AM 50.0 °F - 44.6 °F 82% 29.97 in 10.0 mi South 6.9 mph - N/A   Clear
7:55 AM 50.0 °F - 44.6 °F 82% 29.97 in 9.0 mi South 8.1 mph - N/A   Clear
8:15 AM 51.8 °F - 46.4 °F 82% 29.97 in 9.0 mi South 8.1 mph - N/A   Clear
8:35 AM 51.8 °F - 46.4 °F 82% 29.98 in 10.0 mi South 6.9 mph - N/A   Clear
8:55 AM 53.6 °F - 48.2 °F 82% 29.98 in 10.0 mi South 5.8 mph - N/A   Clear
9:15 AM 55.4 °F - 48.2 °F 77% 29.98 in 10.0 mi South 10.4 mph - N/A   Clear
9:35 AM 55.4 °F - 48.2 °F 77% 29.99 in 10.0 mi South 10.4 mph - N/A   Clear
9:55 AM 57.2 °F - 48.2 °F 72% 29.98 in 10.0 mi SSW 16.1 mph - N/A   Clear
10:15 AM 57.2 °F - 46.4 °F 67% 30.00 in 10.0 mi SSW 18.4 mph 26.5 mph N/A   Clear
10:35 AM 57.2 °F - 46.4 °F 67% 30.00 in 10.0 mi SSW 17.3 mph 24.2 mph N/A   Mostly Cloudy
11:35 AM 59.0 °F - 48.2 °F 67% 30.00 in 10.0 mi SSW 18.4 mph 24.2 mph N/A   Clear
11:55 AM 60.8 °F - 48.2 °F 63% 30.01 in 10.0 mi SSW 16.1 mph 21.9 mph N/A   Clear
12:15 PM 60.8 °F - 48.2 °F 63% 30.02 in 10.0 mi SSW 16.1 mph 24.2 mph N/A   Clear
12:35 PM 62.6 °F - 48.2 °F 59% 30.02 in 10.0 mi SSW 20.7 mph 29.9 mph N/A   Clear
12:55 PM 59.0 °F - 48.2 °F 67% 30.03 in 10.0 mi SSW 16.1 mph 26.5 mph N/A   Clear
1:15 PM 59.0 °F - 48.2 °F 67% 30.03 in 10.0 mi SW 20.7 mph 24.2 mph N/A   Partly Cloudy
1:35 PM 59.0 °F - 48.2 °F 67% 30.02 in 10.0 mi SSW 15.0 mph - N/A   Mostly Cloudy
1:55 PM 57.2 °F - 48.2 °F 72% 30.04 in 10.0 mi SSW 15.0 mph 20.7 mph N/A   Overcast
2:15 PM 57.2 °F - 48.2 °F 72% 30.04 in 9.0 mi South 15.0 mph 19.6 mph N/A   Overcast
2:35 PM 55.4 °F - 48.2 °F 77% 30.04 in 10.0 mi South 15.0 mph - N/A   Overcast
2:55 PM 57.2 °F - 48.2 °F 72% 30.04 in 10.0 mi South 13.8 mph 19.6 mph N/A   Overcast
3:15 PM 57.2 °F - 48.2 °F 72% 30.05 in 10.0 mi South 13.8 mph 18.4 mph N/A   Mostly Cloudy
3:35 PM 57.2 °F - 48.2 °F 72% 30.04 in 10.0 mi SSW 13.8 mph 20.7 mph N/A   Overcast
3:55 PM 57.2 °F - 48.2 °F 72% 30.06 in 10.0 mi South 13.8 mph 19.6 mph N/A   Overcast
4:15 PM 55.4 °F - 48.2 °F 77% 30.06 in 10.0 mi South 16.1 mph 21.9 mph N/A   Overcast
4:35 PM 55.4 °F - 48.2 °F 77% 30.05 in 10.0 mi South 12.7 mph 18.4 mph N/A   Overcast
4:55 PM 55.4 °F - 48.2 °F 77% 30.06 in 10.0 mi South 10.4 mph - N/A   Overcast
5:15 PM 55.4 °F - 48.2 °F 77% 30.07 in 10.0 mi South 10.4 mph 16.1 mph N/A   Overcast
5:35 PM 55.4 °F - 48.2 °F 77% 30.07 in 10.0 mi South 9.2 mph - N/A   Overcast
5:55 PM 55.4 °F - 48.2 °F 77% 30.06 in 10.0 mi South 11.5 mph 17.3 mph N/A   Overcast
6:15 PM 55.4 °F - 48.2 °F 77% 30.08 in 10.0 mi South 12.7 mph - N/A   Overcast
6:35 PM 55.4 °F - 48.2 °F 77% 30.09 in 10.0 mi SSW 12.7 mph - N/A   Overcast
6:55 PM 55.4 °F - 48.2 °F 77% 30.09 in 10.0 mi South 11.5 mph - N/A   Overcast
7:15 PM 55.4 °F - 48.2 °F 77% 30.09 in 7.0 mi South 12.7 mph 17.3 mph N/A   Overcast
7:35 PM 53.6 °F - 48.2 °F 82% 30.10 in 8.0 mi SSW 10.4 mph - N/A   Overcast
7:55 PM 53.6 °F - 48.2 °F 82% 30.10 in 10.0 mi South 10.4 mph - N/A   Overcast
8:15 PM 53.6 °F - 48.2 °F 82% 30.10 in 10.0 mi South 8.1 mph - N/A   Overcast
8:35 PM 53.6 °F - 48.2 °F 82% 30.11 in 10.0 mi SSW 8.1 mph - N/A   Overcast
8:55 PM 53.6 °F - 48.2 °F 82% 30.11 in 10.0 mi South 8.1 mph - N/A   Overcast
9:15 PM 53.6 °F - 48.2 °F 82% 30.12 in 10.0 mi South 8.1 mph - N/A   Overcast
9:35 PM 53.6 °F - 48.2 °F 82% 30.12 in 10.0 mi SSW 8.1 mph - N/A   Overcast
9:55 PM 53.6 °F - 48.2 °F 82% 30.13 in 10.0 mi SSW 8.1 mph - N/A   Overcast
10:15 PM 53.6 °F - 48.2 °F 82% 30.12 in 10.0 mi South 6.9 mph - N/A   Overcast
10:35 PM 53.6 °F - 48.2 °F 82% 30.12 in 10.0 mi South 5.8 mph - N/A   Overcast
10:55 PM 53.6 °F - 48.2 °F 82% 30.12 in 10.0 mi South 4.6 mph - N/A   Overcast
11:15 PM 53.6 °F - 48.2 °F 82% 30.13 in 10.0 mi SSE 4.6 mph - N/A   Overcast
11:35 PM 51.8 °F - 48.2 °F 88% 30.13 in 10.0 mi SSW 3.5 mph - N/A   Mostly Cloudy
11:55 PM 51.8 °F - 48.2 °F 88% 30.12 in 10.0 mi SSE 5.8 mph - N/A   Overcast